When you browse on this site, cookies collect data to enhance your experience and personalize the content and advertising you see.
Visit our Privacy Policy to learn more. By continuing to use the site, you agree to this use of cookies and data.
  • In Czech Republic
  • List of Countries
  • For 7 days
  • Water Temperature
  • Satellite Maps
  • Weather Map
  • Weather Widgets
  • user-avatar
    Login

    Hourly Weather Prutz

    Today, 18 June, Tuesday

    Time Temperature Precipitation Wind Pressure Humidity
    00:00 +11°C° 0 mm 1 mps 635 mmHg 88%
    01:00 +10°C° 0 mm 2 mps 635 mmHg 85%
    02:00 +10°C° 0 mm 2 mps 635 mmHg 85%
    03:00 +10°C° 0 mm 2 mps 634 mmHg 85%
    04:00 +9°C° 0 mm 2 mps 634 mmHg 85%
    05:00 +12°C° 0 mm 1 mps 635 mmHg 82%
    06:00 +14°C° 0 mm 1 mps 636 mmHg 79%
    07:00 +15°C° 0 mm 0 mps 636 mmHg 75%
    08:00 +18°C° 0.1 mm 1 mps 637 mmHg 68%
    09:00 +20°C° 0.1 mm 1 mps 637 mmHg 60%
    10:00 +22°C° 0.1 mm 1 mps 637 mmHg 53%
    11:00 +23°C° 0.3 mm 1 mps 637 mmHg 49%
    12:00 +23°C° 0.3 mm 1 mps 637 mmHg 46%
    13:00 +24°C° 0.3 mm 1 mps 637 mmHg 43%
    14:00 +23°C° 0.7 mm 1 mps 637 mmHg 48%
    15:00 +22°C° 0.7 mm 1 mps 636 mmHg 53%
    16:00 +21°C° 0.7 mm 1 mps 636 mmHg 58%
    17:00 +20°C° 1.1 mm 1 mps 635 mmHg 68%
    18:00 +18°C° 1.1 mm 1 mps 635 mmHg 77%
    19:00 +16°C° 1.1 mm 1 mps 634 mmHg 87%
    20:00 +15°C° 0.5 mm 1 mps 634 mmHg 89%
    21:00 +12°C° 0.5 mm 0 mps 634 mmHg 92%
    22:00 +11°C° 0.5 mm 0 mps 634 mmHg 95%
    23:00 +11°C° 0.1 mm 0 mps 634 mmHg 94%

    Tomorrow, 19 June, Wednesday

    Time Temperature Precipitation Wind Pressure Humidity
    00:00 +12°C° 0.1 mm 1 mps 634 mmHg 93%
    01:00 +11°C° 0.1 mm 1 mps 633 mmHg 92%
    02:00 +12°C° 0 mm 1 mps 633 mmHg 90%
    03:00 +12°C° 0 mm 1 mps 633 mmHg 89%
    04:00 +12°C° 0 mm 1 mps 633 mmHg 88%
    05:00 +13°C° 0 mm 1 mps 633 mmHg 84%
    06:00 +15°C° 0 mm 1 mps 634 mmHg 80%
    07:00 +16°C° 0 mm 1 mps 634 mmHg 76%
    08:00 +18°C° 0.6 mm 1 mps 635 mmHg 70%
    09:00 +17°C° 0.6 mm 0 mps 635 mmHg 65%
    10:00 +19°C° 0.6 mm 0 mps 635 mmHg 59%
    11:00 +21°C° 0.5 mm 1 mps 635 mmHg 55%
    12:00 +22°C° 0.5 mm 1 mps 635 mmHg 50%
    13:00 +23°C° 0.5 mm 2 mps 636 mmHg 46%
    14:00 +21°C° 1 mm 2 mps 635 mmHg 51%
    15:00 +20°C° 1 mm 2 mps 635 mmHg 56%
    16:00 +19°C° 1 mm 2 mps 634 mmHg 61%
    17:00 +19°C° 1 mm 2 mps 634 mmHg 67%
    18:00 +19°C° 1 mm 1 mps 634 mmHg 72%
    19:00 +18°C° 1 mm 1 mps 634 mmHg 78%
    20:00 +15°C° 0.1 mm 1 mps 634 mmHg 79%
    21:00 +14°C° 0.1 mm 1 mps 633 mmHg 80%
    22:00 +13°C° 0.1 mm 1 mps 633 mmHg 80%
    23:00 +12°C° 0 mm 1 mps 633 mmHg 81%

    Day after tomorrow, 20 June, Thursday

    Time Temperature Precipitation Wind Pressure Humidity
    00:00 +12°C° 0 mm 1 mps 633 mmHg 82%
    01:00 +11°C° 0 mm 1 mps 632 mmHg 82%
    02:00 +11°C° 0 mm 1 mps 632 mmHg 82%
    03:00 +10°C° 0 mm 1 mps 632 mmHg 81%
    04:00 +10°C° 0 mm 1 mps 632 mmHg 81%
    05:00 +12°C° 0 mm 1 mps 633 mmHg 76%
    06:00 +14°C° 0 mm 1 mps 633 mmHg 71%
    07:00 +15°C° 0 mm 0 mps 634 mmHg 66%
    08:00 +19°C° 0 mm 1 mps 634 mmHg 59%
    09:00 +20°C° 0 mm 1 mps 635 mmHg 53%
    10:00 +22°C° 0 mm 1 mps 635 mmHg 46%
    11:00 +21°C° 0.6 mm 1 mps 635 mmHg 50%
    12:00 +20°C° 0.6 mm 2 mps 635 mmHg 55%
    13:00 +20°C° 0.6 mm 2 mps 634 mmHg 59%
    14:00 +19°C° 1.5 mm 2 mps 634 mmHg 65%
    15:00 +18°C° 1.5 mm 2 mps 634 mmHg 71%
    16:00 +18°C° 1.5 mm 2 mps 634 mmHg 78%
    17:00 +17°C° 1.2 mm 2 mps 634 mmHg 82%
    18:00 +16°C° 1.2 mm 2 mps 634 mmHg 87%
    19:00 +15°C° 1.2 mm 2 mps 634 mmHg 91%
    20:00 +14°C° 0.7 mm 1 mps 634 mmHg 93%
    21:00 +13°C° 0.7 mm 1 mps 634 mmHg 95%
    22:00 +11°C° 0.7 mm 0 mps 634 mmHg 96%
    23:00 +11°C° 0.2 mm 0 mps 634 mmHg 96%

    21 June, Friday

    Time Temperature Precipitation Wind Pressure Humidity
    00:00 +11°C° 0.2 mm 0 mps 634 mmHg 96%
    01:00 +10°C° 0.2 mm 0 mps 633 mmHg 96%
    02:00 +10°C° 0 mm 0 mps 633 mmHg 96%
    03:00 +10°C° 0 mm 0 mps 633 mmHg 95%
    04:00 +10°C° 0 mm 0 mps 633 mmHg 94%
    05:00 +11°C° 0.3 mm 0 mps 633 mmHg 92%
    06:00 +12°C° 0.3 mm 1 mps 634 mmHg 91%
    07:00 +13°C° 0.3 mm 1 mps 634 mmHg 89%
    08:00 +13°C° 0.5 mm 1 mps 634 mmHg 89%
    09:00 +13°C° 0.5 mm 1 mps 634 mmHg 89%
    10:00 +12°C° 0.5 mm 0 mps 634 mmHg 90%
    11:00 +13°C° 0.2 mm 0 mps 634 mmHg 84%
    12:00 +16°C° 0.2 mm 1 mps 635 mmHg 79%
    13:00 +18°C° 0.2 mm 1 mps 635 mmHg 73%
    14:00 +18°C° 0.7 mm 1 mps 635 mmHg 73%
    15:00 +19°C° 0.7 mm 1 mps 635 mmHg 72%
    16:00 +18°C° 0.7 mm 2 mps 635 mmHg 71%
    17:00 +17°C° 1.2 mm 2 mps 635 mmHg 78%
    18:00 +16°C° 1.2 mm 2 mps 635 mmHg 84%
    19:00 +15°C° 1.2 mm 2 mps 634 mmHg 90%
    20:00 +14°C° 1.1 mm 1 mps 635 mmHg 92%
    21:00 +13°C° 1.1 mm 1 mps 635 mmHg 93%
    22:00 +12°C° 1.1 mm 1 mps 635 mmHg 95%
    23:00 +12°C° 0.3 mm 1 mps 635 mmHg 94%

    22 June, Saturday

    Time Temperature Precipitation Wind Pressure Humidity
    00:00 +11°C° 0.3 mm 0 mps 635 mmHg 94%
    01:00 +11°C° 0.3 mm 0 mps 635 mmHg 94%
    02:00 +11°C° 0.1 mm 0 mps 634 mmHg 93%
    03:00 +11°C° 0.1 mm 0 mps 634 mmHg 93%
    04:00 +11°C° 0.1 mm 1 mps 634 mmHg 92%
    05:00 +12°C° 0 mm 1 mps 634 mmHg 88%
    06:00 +12°C° 0 mm 0 mps 635 mmHg 84%
    07:00 +13°C° 0 mm 0 mps 635 mmHg 80%
    08:00 +16°C° 0.7 mm 1 mps 635 mmHg 77%
    09:00 +18°C° 0.7 mm 1 mps 636 mmHg 74%
    10:00 +19°C° 0.7 mm 1 mps 636 mmHg 71%
    11:00 +19°C° 1.6 mm 1 mps 636 mmHg 72%
    12:00 +19°C° 1.6 mm 1 mps 636 mmHg 74%
    13:00 +19°C° 1.6 mm 1 mps 636 mmHg 75%
    14:00 +19°C° 2 mm 1 mps 635 mmHg 78%
    15:00 +18°C° 2 mm 1 mps 635 mmHg 81%
    16:00 +16°C° 2 mm 1 mps 635 mmHg 84%
    17:00 +16°C° 1.6 mm 1 mps 635 mmHg 85%
    18:00 +15°C° 1.6 mm 1 mps 635 mmHg 87%
    19:00 +15°C° 1.6 mm 1 mps 635 mmHg 89%
    20:00 +14°C° 0.6 mm 1 mps 635 mmHg 91%
    21:00 +13°C° 0.6 mm 1 mps 635 mmHg 92%
    22:00 +11°C° 0.6 mm 0 mps 635 mmHg 94%
    23:00 +10°C° 0 mm 0 mps 635 mmHg 93%

    23 June, Sunday

    Time Temperature Precipitation Wind Pressure Humidity
    00:00 +9°C° 0 mm 0 mps 634 mmHg 93%
    01:00 +9°C° 0 mm 0 mps 634 mmHg 92%
    02:00 +8°C° 0 mm 0 mps 634 mmHg 92%
    03:00 +8°C° 0 mm 0 mps 634 mmHg 92%
    04:00 +8°C° 0 mm 0 mps 634 mmHg 91%
    05:00 +10°C° 0 mm 0 mps 635 mmHg 87%
    06:00 +11°C° 0 mm 0 mps 636 mmHg 82%
    07:00 +14°C° 0 mm 1 mps 636 mmHg 78%
    08:00 +15°C° 0 mm 0 mps 637 mmHg 69%
    09:00 +18°C° 0 mm 0 mps 638 mmHg 59%
    10:00 +20°C° 0 mm 0 mps 638 mmHg 50%
    11:00 +23°C° 0 mm 1 mps 639 mmHg 45%
    12:00 +24°C° 0 mm 1 mps 639 mmHg 41%
    13:00 +25°C° 0 mm 1 mps 639 mmHg 36%
    14:00 +24°C° 0 mm 2 mps 639 mmHg 37%
    15:00 +24°C° 0 mm 2 mps 639 mmHg 39%
    16:00 +24°C° 0 mm 2 mps 639 mmHg 40%
    17:00 +21°C° 0 mm 2 mps 639 mmHg 49%
    18:00 +20°C° 0 mm 2 mps 638 mmHg 58%
    19:00 +20°C° 0 mm 1 mps 638 mmHg 67%
    20:00 +18°C° 0 mm 1 mps 638 mmHg 73%
    21:00 +15°C° 0 mm 1 mps 637 mmHg 79%
    22:00 +12°C° 0 mm 0 mps 637 mmHg 84%
    23:00 +13°C° 0 mm 1 mps 637 mmHg 83%
    Show more